Time,TemperatureF,DewpointF,PressureIn,WindDirection,WindDirectionDegrees,WindSpeedMPH,WindSpeedGustMPH,Humidity,HourlyPrecipIn,Conditions,Clouds,dailyrainin,SoftwareType,DateUTC
2013-07-14 00:04:00,64.9,62.5,29.89,South,186,0.0,0.0,92,0.00,,,0.00,Wunderground v.1.15,2013-07-14 07:04:00,
2013-07-14 00:14:00,65.0,62.6,29.89,South,186,0.0,0.0,92,0.00,,,0.00,Wunderground v.1.15,2013-07-14 07:14:00,
2013-07-14 00:24:00,65.0,62.6,29.89,South,186,0.0,0.0,92,0.00,,,0.00,Wunderground v.1.15,2013-07-14 07:24:00,
2013-07-14 00:34:00,65.0,62.6,29.89,South,186,0.0,0.0,92,0.00,,,0.00,Wunderground v.1.15,2013-07-14 07:34:00,
2013-07-14 00:44:00,65.0,62.3,29.89,South,188,0.0,0.0,91,0.00,,,0.00,Wunderground v.1.15,2013-07-14 07:44:00,
2013-07-14 00:54:00,65.0,62.3,29.89,South,188,0.0,0.0,91,0.00,,,0.00,Wunderground v.1.15,2013-07-14 07:54:00,
2013-07-14 01:04:00,65.0,62.3,29.88,South,188,0.0,0.0,91,0.00,,,0.00,Wunderground v.1.15,2013-07-14 08:04:00,
2013-07-14 01:14:00,65.0,62.3,29.88,South,188,0.0,0.0,91,0.00,,,0.00,Wunderground v.1.15,2013-07-14 08:14:00,
2013-07-14 01:24:00,65.0,62.3,29.88,South,188,0.0,0.0,91,0.00,,,0.00,Wunderground v.1.15,2013-07-14 08:24:00,
2013-07-14 01:34:00,64.9,62.2,29.88,SSW,194,0.0,0.0,91,0.00,,,0.00,Wunderground v.1.15,2013-07-14 08:34:00,
2013-07-14 01:44:00,64.9,62.2,29.88,SSW,194,0.0,0.0,91,0.00,,,0.00,Wunderground v.1.15,2013-07-14 08:44:00,
2013-07-14 01:54:00,64.8,62.1,29.88,SSW,194,0.0,0.0,91,0.00,,,0.00,Wunderground v.1.15,2013-07-14 08:54:00,
2013-07-14 02:04:00,64.8,62.1,29.88,West,274,0.0,0.0,91,0.00,,,0.00,Wunderground v.1.15,2013-07-14 09:04:00,
2013-07-14 02:14:00,64.7,62.0,29.88,West,274,0.0,0.0,91,0.00,,,0.00,Wunderground v.1.15,2013-07-14 09:14:00,
2013-07-14 02:24:00,64.7,62.0,29.88,West,274,0.0,0.0,91,0.00,,,0.00,Wunderground v.1.15,2013-07-14 09:24:00,
2013-07-14 02:34:00,64.7,62.0,29.88,West,274,0.0,0.0,91,0.00,,,0.00,Wunderground v.1.15,2013-07-14 09:34:00,
2013-07-14 02:44:00,64.7,62.0,29.88,West,274,0.0,0.0,91,0.00,,,0.00,Wunderground v.1.15,2013-07-14 09:44:00,
2013-07-14 02:54:00,64.7,62.0,29.88,West,274,0.0,0.0,91,0.00,,,0.00,Wunderground v.1.15,2013-07-14 09:54:00,
2013-07-14 03:04:00,64.7,62.0,29.88,West,274,0.0,0.0,91,0.00,,,0.00,Wunderground v.1.15,2013-07-14 10:04:00,
2013-07-14 03:14:00,64.7,62.0,29.88,West,274,0.0,0.0,91,0.00,,,0.00,Wunderground v.1.15,2013-07-14 10:14:00,
2013-07-14 03:24:00,64.8,62.1,29.88,West,274,0.0,0.0,91,0.00,,,0.00,Wunderground v.1.15,2013-07-14 10:24:00,
2013-07-14 03:34:00,64.8,62.1,29.87,West,274,0.0,0.0,91,0.00,,,0.00,Wunderground v.1.15,2013-07-14 10:34:00,
2013-07-14 03:44:00,64.8,62.1,29.87,West,274,0.0,0.0,91,0.00,,,0.00,Wunderground v.1.15,2013-07-14 10:44:00,
2013-07-14 03:54:00,64.8,62.1,29.87,West,274,0.0,0.0,91,0.00,,,0.00,Wunderground v.1.15,2013-07-14 10:54:00,
2013-07-14 04:04:00,64.9,62.2,29.87,West,274,0.0,0.0,91,0.00,,,0.00,Wunderground v.1.15,2013-07-14 11:04:00,
2013-07-14 04:14:00,64.9,62.5,29.87,West,274,0.0,0.0,92,0.00,,,0.00,Wunderground v.1.15,2013-07-14 11:14:00,
2013-07-14 04:24:00,65.0,62.6,29.87,West,274,0.0,0.0,92,0.00,,,0.00,Wunderground v.1.15,2013-07-14 11:24:00,
2013-07-14 04:34:00,65.2,62.8,29.87,West,274,0.0,0.0,92,0.00,,,0.00,Wunderground v.1.15,2013-07-14 11:34:00,
2013-07-14 04:44:00,65.4,63.0,29.87,South,191,0.0,0.0,92,0.00,,,0.00,Wunderground v.1.15,2013-07-14 11:44:00,
2013-07-14 04:54:00,65.5,63.1,29.87,South,191,0.0,0.0,92,0.00,,,0.00,Wunderground v.1.15,2013-07-14 11:54:00,
2013-07-14 05:04:00,65.5,63.1,29.88,South,191,0.0,0.0,92,0.00,,,0.00,Wunderground v.1.15,2013-07-14 12:04:00,
2013-07-14 05:14:00,65.6,63.2,29.88,South,191,0.0,0.0,92,0.00,,,0.00,Wunderground v.1.15,2013-07-14 12:14:00,
2013-07-14 05:24:00,65.7,63.3,29.88,South,191,0.0,0.0,92,0.00,,,0.00,Wunderground v.1.15,2013-07-14 12:24:00,
2013-07-14 05:34:00,65.8,63.4,29.88,South,191,0.0,0.0,92,0.00,,,0.00,Wunderground v.1.15,2013-07-14 12:34:00,
2013-07-14 05:44:00,65.8,63.4,29.88,South,191,0.0,0.0,92,0.00,,,0.00,Wunderground v.1.15,2013-07-14 12:44:00,
2013-07-14 05:54:00,65.9,63.5,29.89,South,191,0.0,0.0,92,0.00,,,0.00,Wunderground v.1.15,2013-07-14 12:54:00,
2013-07-14 06:04:00,65.9,63.5,29.89,South,191,0.0,0.0,92,0.00,,,0.00,Wunderground v.1.15,2013-07-14 13:04:00,
2013-07-14 06:14:00,66.1,63.7,29.89,South,191,0.0,0.0,92,0.00,,,0.00,Wunderground v.1.15,2013-07-14 13:14:00,
2013-07-14 06:24:00,66.1,63.7,29.89,South,191,0.0,0.0,92,0.00,,,0.00,Wunderground v.1.15,2013-07-14 13:24:00,
2013-07-14 06:34:00,66.2,63.8,29.89,ESE,107,0.0,0.0,92,0.00,,,0.00,Wunderground v.1.15,2013-07-14 13:34:00,
2013-07-14 06:44:00,66.3,63.9,29.89,ESE,107,0.0,0.0,92,0.00,,,0.00,Wunderground v.1.15,2013-07-14 13:44:00,
2013-07-14 06:54:00,66.5,64.1,29.89,ESE,107,0.0,0.0,92,0.00,,,0.00,Wunderground v.1.15,2013-07-14 13:54:00,
2013-07-14 07:04:00,66.6,64.2,29.89,ESE,107,0.0,0.0,92,0.00,,,0.00,Wunderground v.1.15,2013-07-14 14:04:00,
2013-07-14 07:14:00,66.7,64.3,29.89,SW,229,0.0,0.0,92,0.00,,,0.00,Wunderground v.1.15,2013-07-14 14:14:00,
2013-07-14 07:24:00,66.6,64.2,29.89,SW,230,0.0,0.0,92,0.00,,,0.00,Wunderground v.1.15,2013-07-14 14:24:00,
2013-07-14 07:34:00,66.6,64.2,29.90,SW,230,0.0,0.0,92,0.00,,,0.00,Wunderground v.1.15,2013-07-14 14:34:00,
2013-07-14 07:44:00,66.7,64.3,29.90,SW,230,0.0,0.0,92,0.00,,,0.00,Wunderground v.1.15,2013-07-14 14:44:00,
2013-07-14 07:54:00,66.7,64.3,29.90,SW,230,0.0,0.0,92,0.00,,,0.00,Wunderground v.1.15,2013-07-14 14:54:00,
2013-07-14 08:04:00,66.8,64.4,29.90,SW,230,0.0,0.0,92,0.00,,,0.00,Wunderground v.1.15,2013-07-14 15:04:00,
2013-07-14 08:14:00,67.0,64.3,29.90,SW,230,0.0,0.0,91,0.00,,,0.00,Wunderground v.1.15,2013-07-14 15:14:00,
2013-07-14 08:24:00,67.1,64.4,29.91,SW,230,0.0,0.0,91,0.00,,,0.00,Wunderground v.1.15,2013-07-14 15:24:00,
2013-07-14 08:34:00,67.2,64.5,29.91,SW,230,0.0,0.0,91,0.00,,,0.00,Wunderground v.1.15,2013-07-14 15:34:00,
2013-07-14 08:44:00,67.4,64.7,29.90,WSW,250,0.0,0.0,91,0.00,,,0.00,Wunderground v.1.15,2013-07-14 15:44:00,
2013-07-14 08:54:00,67.8,65.1,29.90,WSW,250,0.0,0.0,91,0.00,,,0.00,Wunderground v.1.15,2013-07-14 15:54:00,
2013-07-14 09:04:00,68.1,65.1,29.90,West,271,0.0,4.0,90,0.00,,,0.00,Wunderground v.1.15,2013-07-14 16:04:00,
2013-07-14 09:14:00,68.1,64.7,29.90,WNW,284,1.0,1.0,89,0.00,,,0.00,Wunderground v.1.15,2013-07-14 16:14:00,
2013-07-14 09:24:00,68.3,64.9,29.90,West,280,0.0,4.0,89,0.00,,,0.00,Wunderground v.1.15,2013-07-14 16:24:00,
2013-07-14 09:34:00,68.5,65.1,29.90,SSW,192,0.0,0.0,89,0.00,,,0.00,Wunderground v.1.15,2013-07-14 16:34:00,
2013-07-14 09:44:00,69.0,65.6,29.90,NW,309,1.0,1.0,89,0.00,,,0.00,Wunderground v.1.15,2013-07-14 16:44:00,
2013-07-14 09:54:00,69.4,65.7,29.90,WSW,242,0.0,0.0,88,0.00,,,0.00,Wunderground v.1.15,2013-07-14 16:54:00,
2013-07-14 10:04:00,69.9,65.9,29.89,WNW,282,0.0,0.0,87,0.00,,,0.00,Wunderground v.1.15,2013-07-14 17:04:00,
2013-07-14 10:14:00,70.2,65.8,29.89,West,281,1.0,1.0,86,0.00,,,0.00,Wunderground v.1.15,2013-07-14 17:14:00,
2013-07-14 10:24:00,70.2,65.8,29.89,WNW,286,1.0,1.0,86,0.00,,,0.00,Wunderground v.1.15,2013-07-14 17:24:00,
2013-07-14 10:34:00,69.7,65.3,29.89,WNW,291,2.0,7.0,86,0.00,,,0.00,Wunderground v.1.15,2013-07-14 17:34:00,
2013-07-14 10:44:00,69.9,65.5,29.89,WSW,244,3.0,3.0,86,0.00,,,0.00,Wunderground v.1.15,2013-07-14 17:44:00,
2013-07-14 10:54:00,69.7,65.7,29.90,West,261,4.0,7.0,87,0.00,,,0.00,Wunderground v.1.15,2013-07-14 17:54:00,
2013-07-14 11:04:00,70.5,66.1,29.90,WSW,249,2.0,2.0,86,0.00,,,0.00,Wunderground v.1.15,2013-07-14 18:04:00,
2013-07-14 11:14:00,70.0,65.6,29.89,WSW,250,3.0,3.0,86,0.00,,,0.00,Wunderground v.1.15,2013-07-14 18:14:00,
2013-07-14 11:24:00,69.5,65.1,29.89,WSW,257,5.0,5.0,86,0.00,,,0.00,Wunderground v.1.15,2013-07-14 18:24:00,
2013-07-14 11:34:00,69.9,65.5,29.89,WSW,248,4.0,4.0,86,0.00,,,0.00,Wunderground v.1.15,2013-07-14 18:34:00,
2013-07-14 11:44:00,70.5,66.1,29.89,North,5,3.0,3.0,86,0.00,,,0.00,Wunderground v.1.15,2013-07-14 18:44:00,
2013-07-14 11:54:00,70.6,66.2,29.89,West,259,4.0,7.0,86,0.00,,,0.00,Wunderground v.1.15,2013-07-14 18:54:00,
2013-07-14 12:04:00,70.9,66.2,29.89,WSW,250,4.0,4.0,85,0.00,,,0.00,Wunderground v.1.15,2013-07-14 19:04:00,
2013-07-14 12:14:00,71.2,66.1,29.88,WNW,297,5.0,5.0,84,0.00,,,0.00,Wunderground v.1.15,2013-07-14 19:14:00,
2013-07-14 12:24:00,71.7,66.6,29.88,WSW,240,3.0,3.0,84,0.00,,,0.00,Wunderground v.1.15,2013-07-14 19:24:00,
2013-07-14 12:34:00,71.2,66.1,29.88,West,281,5.0,8.0,84,0.00,,,0.00,Wunderground v.1.15,2013-07-14 19:34:00,
2013-07-14 12:44:00,70.8,66.1,29.88,West,268,6.0,7.0,85,0.00,,,0.00,Wunderground v.1.15,2013-07-14 19:44:00,
2013-07-14 12:54:00,70.5,65.8,29.88,WNW,296,6.0,6.0,85,0.00,,,0.00,Wunderground v.1.15,2013-07-14 19:54:00,
2013-07-14 13:04:00,70.8,66.1,29.87,West,262,4.0,4.0,85,0.00,,,0.00,Wunderground v.1.15,2013-07-14 20:04:00,
2013-07-14 13:14:00,71.2,66.1,29.87,WNW,293,5.0,6.0,84,0.00,,,0.00,Wunderground v.1.15,2013-07-14 20:14:00,
2013-07-14 13:24:00,70.8,66.1,29.87,West,279,6.0,7.0,85,0.00,,,0.00,Wunderground v.1.15,2013-07-14 20:24:00,
2013-07-14 13:34:00,71.3,66.6,29.87,WNW,292,4.0,6.0,85,0.00,,,0.00,Wunderground v.1.15,2013-07-14 20:34:00,
2013-07-14 13:44:00,71.8,66.4,29.87,WSW,245,3.0,3.0,83,0.00,,,0.00,Wunderground v.1.15,2013-07-14 20:44:00,
2013-07-14 13:54:00,71.2,66.1,29.87,West,279,3.0,3.0,84,0.00,,,0.00,Wunderground v.1.15,2013-07-14 20:54:00,
2013-07-14 14:04:00,71.2,66.5,29.87,West,276,3.0,3.0,85,0.00,,,0.00,Wunderground v.1.15,2013-07-14 21:04:00,
2013-07-14 14:14:00,71.6,66.5,29.87,West,275,3.0,5.0,84,0.00,,,0.00,Wunderground v.1.15,2013-07-14 21:14:00,
2013-07-14 14:24:00,71.8,66.4,29.86,West,274,3.0,5.0,83,0.00,,,0.00,Wunderground v.1.15,2013-07-14 21:24:00,
2013-07-14 14:34:00,71.3,66.6,29.86,NW,310,3.0,3.0,85,0.00,,,0.00,Wunderground v.1.15,2013-07-14 21:34:00,
2013-07-14 14:44:00,72.2,66.7,29.86,West,271,3.0,3.0,83,0.00,,,0.00,Wunderground v.1.15,2013-07-14 21:44:00,
2013-07-14 14:54:00,73.1,66.9,29.85,WNW,292,2.0,2.0,81,0.00,,,0.00,Wunderground v.1.15,2013-07-14 21:54:00,
2013-07-14 15:04:00,72.6,66.4,29.85,SSW,199,3.0,3.0,81,0.00,,,0.00,Wunderground v.1.15,2013-07-14 22:04:00,
2013-07-14 15:14:00,72.8,66.6,29.84,WSW,254,2.0,3.0,81,0.00,,,0.00,Wunderground v.1.15,2013-07-14 22:14:00,
2013-07-14 15:24:00,72.7,66.9,29.84,WSW,253,2.0,2.0,82,0.00,,,0.00,Wunderground v.1.15,2013-07-14 22:24:00,
2013-07-14 15:34:00,73.0,67.2,29.84,West,271,1.0,1.0,82,0.00,,,0.00,Wunderground v.1.15,2013-07-14 22:34:00,
2013-07-14 15:44:00,73.0,66.8,29.84,West,259,2.0,4.0,81,0.00,,,0.00,Wunderground v.1.15,2013-07-14 22:44:00,
2013-07-14 15:54:00,73.5,66.6,29.83,West,275,2.0,2.0,79,0.00,,,0.00,Wunderground v.1.15,2013-07-14 22:54:00,
2013-07-14 16:04:00,73.3,66.8,29.83,SSW,205,3.0,3.0,80,0.00,,,0.00,Wunderground v.1.15,2013-07-14 23:04:00,
2013-07-14 16:14:00,71.9,66.1,29.83,West,268,3.0,3.0,82,0.00,,,0.00,Wunderground v.1.15,2013-07-14 23:14:00,
2013-07-14 16:24:00,71.5,66.4,29.83,West,270,2.0,2.0,84,0.00,,,0.00,Wunderground v.1.15,2013-07-14 23:24:00,
2013-07-14 16:34:00,72.1,65.9,29.83,WSW,254,1.0,1.0,81,0.00,,,0.00,Wunderground v.1.15,2013-07-14 23:34:00,
2013-07-14 16:44:00,71.6,66.2,29.83,SW,217,3.0,6.0,83,0.00,,,0.00,Wunderground v.1.15,2013-07-14 23:44:00,
2013-07-14 16:54:00,71.4,66.3,29.83,WSW,242,2.0,4.0,84,0.00,,,0.00,Wunderground v.1.15,2013-07-14 23:54:00,
2013-07-14 17:04:00,71.4,66.0,29.83,West,273,1.0,1.0,83,0.00,,,0.00,Wunderground v.1.15,2013-07-15 00:04:00,
2013-07-14 17:14:00,72.2,66.0,29.82,West,259,1.0,1.0,81,0.00,,,0.00,Wunderground v.1.15,2013-07-15 00:14:00,
2013-07-14 17:24:00,71.7,65.6,29.83,WSW,254,1.0,1.0,81,0.00,,,0.00,Wunderground v.1.15,2013-07-15 00:24:00,
2013-07-14 17:34:00,71.4,65.3,29.82,SW,226,1.0,4.0,81,0.00,,,0.00,Wunderground v.1.15,2013-07-15 00:34:00,
2013-07-14 17:44:00,71.3,65.2,29.82,WSW,238,1.0,7.0,81,0.00,,,0.00,Wunderground v.1.15,2013-07-15 00:44:00,
2013-07-14 17:54:00,71.2,65.1,29.82,West,277,2.0,2.0,81,0.00,,,0.00,Wunderground v.1.15,2013-07-15 00:54:00,
2013-07-14 18:04:00,71.1,65.0,29.82,South,176,2.0,2.0,81,0.00,,,0.00,Wunderground v.1.15,2013-07-15 01:04:00,
2013-07-14 18:14:00,70.6,64.8,29.82,SW,229,1.0,1.0,82,0.00,,,0.00,Wunderground v.1.15,2013-07-15 01:14:00,
2013-07-14 18:24:00,70.8,64.7,29.82,SW,236,0.0,0.0,81,0.00,,,0.00,Wunderground v.1.15,2013-07-15 01:24:00,
2013-07-14 18:34:00,70.6,64.5,29.82,SSW,198,0.0,0.0,81,0.00,,,0.00,Wunderground v.1.15,2013-07-15 01:34:00,
2013-07-14 18:44:00,70.3,64.2,29.82,South,182,0.0,3.0,81,0.00,,,0.00,Wunderground v.1.15,2013-07-15 01:44:00,
2013-07-14 18:54:00,69.7,64.0,29.82,South,188,0.0,0.0,82,0.00,,,0.00,Wunderground v.1.15,2013-07-15 01:54:00,
2013-07-14 19:04:00,69.5,64.1,29.82,SSW,193,0.0,0.0,83,0.00,,,0.00,Wunderground v.1.15,2013-07-15 02:04:00,
2013-07-14 19:14:00,69.6,64.5,29.83,SSW,195,0.0,0.0,84,0.00,,,0.00,Wunderground v.1.15,2013-07-15 02:14:00,
2013-07-14 19:24:00,69.4,64.7,29.83,SSW,202,0.0,0.0,85,0.00,,,0.00,Wunderground v.1.15,2013-07-15 02:24:00,
2013-07-14 19:34:00,68.7,64.3,29.83,South,187,0.0,0.0,86,0.00,,,0.00,Wunderground v.1.15,2013-07-15 02:34:00,
2013-07-14 19:44:00,68.4,64.4,29.83,South,187,0.0,0.0,87,0.00,,,0.00,Wunderground v.1.15,2013-07-15 02:44:00,
2013-07-14 19:54:00,68.2,64.5,29.82,SSW,194,0.0,0.0,88,0.00,,,0.00,Wunderground v.1.15,2013-07-15 02:54:00,
2013-07-14 20:04:00,68.0,64.3,29.82,SSW,195,0.0,0.0,88,0.00,,,0.00,Wunderground v.1.15,2013-07-15 03:04:00,
2013-07-14 20:14:00,67.8,64.4,29.83,SSW,195,0.0,0.0,89,0.00,,,0.00,Wunderground v.1.15,2013-07-15 03:14:00,
2013-07-14 20:24:00,67.6,64.6,29.83,South,179,0.0,0.0,90,0.00,,,0.00,Wunderground v.1.15,2013-07-15 03:24:00,
2013-07-14 20:34:00,67.5,64.5,29.83,South,179,0.0,0.0,90,0.00,,,0.00,Wunderground v.1.15,2013-07-15 03:34:00,
2013-07-14 20:44:00,67.4,64.4,29.83,SE,125,0.0,0.0,90,0.00,,,0.00,Wunderground v.1.15,2013-07-15 03:44:00,
2013-07-14 20:54:00,67.3,64.3,29.83,SSW,192,0.0,0.0,90,0.00,,,0.00,Wunderground v.1.15,2013-07-15 03:54:00,
2013-07-14 21:04:00,67.3,64.6,29.83,SSW,192,0.0,0.0,91,0.00,,,0.00,Wunderground v.1.15,2013-07-15 04:04:00,
2013-07-14 21:14:00,67.2,64.5,29.83,South,191,0.0,0.0,91,0.00,,,0.00,Wunderground v.1.15,2013-07-15 04:14:00,
2013-07-14 21:24:00,67.2,64.5,29.84,South,188,0.0,0.0,91,0.00,,,0.00,Wunderground v.1.15,2013-07-15 04:24:00,
2013-07-14 21:34:00,67.1,64.4,29.84,SSE,157,0.0,0.0,91,0.00,,,0.00,Wunderground v.1.15,2013-07-15 04:34:00,
2013-07-14 21:44:00,67.1,64.4,29.84,SE,144,0.0,0.0,91,0.00,,,0.00,Wunderground v.1.15,2013-07-15 04:44:00,
2013-07-14 21:54:00,67.0,64.3,29.84,ESE,123,0.0,0.0,91,0.00,,,0.00,Wunderground v.1.15,2013-07-15 04:54:00,
2013-07-14 22:04:00,67.0,64.3,29.84,SSE,159,0.0,0.0,91,0.00,,,0.00,Wunderground v.1.15,2013-07-15 05:04:00,
2013-07-14 22:14:00,67.0,64.3,29.84,SSE,154,0.0,0.0,91,0.00,,,0.00,Wunderground v.1.15,2013-07-15 05:14:00,
2013-07-14 22:24:00,66.9,64.2,29.84,South,180,0.0,0.0,91,0.00,,,0.00,Wunderground v.1.15,2013-07-15 05:24:00,
2013-07-14 22:34:00,66.8,64.1,29.84,South,188,0.0,0.0,91,0.00,,,0.00,Wunderground v.1.15,2013-07-15 05:34:00,
2013-07-14 22:44:00,66.8,64.1,29.83,South,188,0.0,0.0,91,0.00,,,0.00,Wunderground v.1.15,2013-07-15 05:44:00,
2013-07-14 22:54:00,66.7,64.0,29.84,South,188,0.0,0.0,91,0.00,,,0.00,Wunderground v.1.15,2013-07-15 05:54:00,
2013-07-14 23:04:00,66.7,64.0,29.84,SE,146,0.0,0.0,91,0.00,,,0.00,Wunderground v.1.15,2013-07-15 06:04:00,
2013-07-14 23:14:00,66.8,64.1,29.84,South,188,1.0,1.0,91,0.00,,,0.00,Wunderground v.1.15,2013-07-15 06:14:00,
2013-07-14 23:24:00,66.9,64.2,29.84,SSW,213,0.0,0.0,91,0.00,,,0.00,Wunderground v.1.15,2013-07-15 06:24:00,
2013-07-14 23:34:00,67.0,64.3,29.84,SSW,197,0.0,0.0,91,0.00,,,0.00,Wunderground v.1.15,2013-07-15 06:34:00,
2013-07-14 23:44:00,66.9,64.2,29.85,South,184,0.0,0.0,91,0.00,,,0.00,Wunderground v.1.15,2013-07-15 06:44:00,
2013-07-14 23:54:00,67.0,64.3,29.85,South,184,0.0,0.0,91,0.00,,,0.00,Wunderground v.1.15,2013-07-15 06:54:00,